Weather Roundup
Issued by NWS

Home | Current Version | Previous Version | Text Only | Print | Product List | Glossary On
Versions: 1 2 3 4 5 6 7 8 9 10 11 12 13 14 15 16 17 18 19 20 21 22 23 24 25 26 27 28 29 30 31 32 33 34 35 36 37 38 39 40 41 42 43 44 45 46 47 48 49 50
000
NZUS93 KARX 281010
HRRWXR

CURRENT HOURLY OBSERVATIONS ACROSS
MUCH OF THE UPPER MISSISSIPPI VALLEY
NATIONAL WEATHER SERVICE LA CROSSE WI
500 AM CDT TUE JUL 28 2015


...SOUTHEAST MINNESOTA...


CITY           SKY/WX    TMP DP  RH WIND       PRES   REMARKS
ROCHESTER      CLEAR     71  69  93 SE10      29.89S
ROCHESTER/MAYO FAIR      72  72 100 SE10      29.88S
WINONA         CLEAR     73  72  94 SE3       29.89F
AUSTIN         MOCLDY    73  70  88 S9        29.88R THUNDER
ALBERT LEA     TSTM      70  70 100 S10G17    29.87R
DODGE CENTER   PTCLDY    70  68  94 S7        29.87R
PRESTON        PTCLDY    70  68  92 SE9       29.90F FOG
OWATONNA       MOCLDY    73  70  88 S13       29.85R
FARIBAULT      MOCLDY    73  70  88 SE12G17   29.85R
$$

...ELSEWHERE IN MINNESOTA...


CITY           SKY/WX    TMP DP  RH WIND       PRES   REMARKS
MINNEAPOLIS    MOCLDY    74  70  87 SE12      29.80F
INTNL FALLS    PTCLDY    69  66  90 SE9       29.77F
DULUTH         PTCLDY    70  65  84 SE9       29.86F
RED WING       PTCLDY    75  70  83 SE12      29.84F
REDWOOD FALLS  TSTM      72  68  87 W16G30    29.78R
MANKATO        CLOUDY    73  66  78 SE13      29.81R
WORTHINGTON    CLOUDY    72  66  83 NW7       29.86R THUNDER
FAIRMONT       CLOUDY    72  64  78 SE18G24   29.79F
$$

...SOUTHWEST WISCONSIN...


CITY           SKY/WX    TMP DP  RH WIND       PRES   REMARKS
LA CROSSE      CLEAR     72  65  78 SE7       29.90F
PRAIRIE DU CHI CLEAR     70  65  83 E6        29.92S
BOSCOBEL       CLEAR     71  63  75 VRB3      29.94F
LONE ROCK      CLEAR     66  62  87 SE3       29.96F
PLATTEVILLE    CLEAR     67  64  91 E10       29.96F
FORT MC COY    CLEAR     69  61  75 E3        29.95S
CAMP DOUGLAS   CLEAR     65  65 100 SE3       29.95F
VIROQUA        FAIR      68  64  89 SE9       29.95S
WIS DELLS      CLEAR     67  60  78 SE6       29.97F
$$

...ELSEWHERE IN WISCONSIN...


CITY           SKY/WX    TMP DP  RH WIND       PRES   REMARKS
MILWAUKEE      PTCLDY    67  62  84 CALM      30.00S
MADISON        CLEAR     68  62  81 SE7       29.98F
GREEN BAY      CLEAR     60  58  92 W3        30.00S FOG
EAU CLAIRE     CLEAR     71  65  81 SE7       29.89F
BLACK RVR FLS  FAIR      69  66  92 CALM      29.93F
MEDFORD        CLEAR     65  61  87 SE5       29.97F
WAUSAU         CLEAR     65  61  87 SE5       29.96F
WIS RAPIDS     CLEAR     67  60  78 S5        29.98F
MARSHFIELD     CLEAR     68  60  75 S8        29.96F
RICE LAKE      CLEAR     70  65  86 SE10      29.91S
$$

...NORTHEAST IOWA...


CITY           SKY/WX    TMP DP  RH WIND       PRES   REMARKS
DECORAH        PTCLDY    70  70 100 SE9G17    29.90F FOG
MASON CITY     CLOUDY    71  70  96 SW6       29.91R
CHARLES CITY   MOCLDY    72  72 100 S9G16     29.90R
OELWEIN          N/A     72  72 100 SE10      29.91F
$$

...ELSEWHERE IN IOWA...


CITY           SKY/WX    TMP DP  RH WIND       PRES   REMARKS
DES MOINES     PTCLDY    74  69  85 S9        29.85F
IOWA CITY      PTCLDY    73  71  93 SE6       29.93F
FORT DODGE     MOCLDY    73  66  78 S8G17     29.85R
$$

...NORTHERN ILLINOIS...


CITY           SKY/WX    TMP DP  RH WIND       PRES   REMARKS
CHICAGO-OHARE  CLEAR     69  66  90 CALM      29.98F
CHICAGO-MIDWAY CLEAR     74  66  76 E5        29.98S
MOLINE         PTCLDY    71  68  90 E7        29.94S
ROCKFORD       PTCLDY    69  63  81 E5        30.00S
PEORIA         CLEAR     74  71  91 CALM      29.95S FOG
$$

NOTE: "FAIR" INDICATES FEW OR NO CLOUDS BELOW 12,000 FEET WITH NO
SIGNIFICANT WEATHER AND/OR OBSTRUCTIONS TO VISIBILITY. WIND
SPEEDS ARE IN MILES-PER-HOUR.



USA.gov is the U.S. government's official web portal to all federal, state and local government web resources and services.